Temperature
4 4 3 4 4 3 3 3 4 4 4 6 6 5 6 7 7 7 7 7 7 6 6 6 6 5 5 5 4 4 4 4 3 3 3 3 3 3 3 3 3 2 2 3
3 4 3 3 3 4 4 4 4 4 4 5 5 6 5 6 6 6 6 6 6 5 5 5 5 4 4 4 4 3 3 3 3 3 3 2 2 2 2 2 2 2 2 2
2 2 3 3 3 4 3 3 4 4 5 4 4 4 4 5 5 5 5 5 5 4 4 4 4 3 3 3 3 3 3 2 2 2 2 2 2 2 2 2 2 2 2 2
1 1 2 4 4 4 4 4 4 4 4 4 4 4 5 5 5 5 4 4 4 4 3 3 3 3 3 2 2 2 2 2 2 1 1 1 1 1 1 1 1 1 1 1
1 1 1 3 3 3 3 3 3 3 3 3 4 3 3 4 4 4 4 3 3 3 3 2 2 2 2 2 2 1 1 1 1 1 1 0 0 0 0 0 1 1 1 1
0 1 2 3 3 3 3 2 2 2 2 2 2 1 2 3 3 3 3 3 2 2 2 2 1 1 1 1 1 1 1 0 0 0 -0 -0 -0 -0 -0 -0 0 0 0 1
0 0 1 2 3 3 3 2 2 2 2 2 1 1 2 2 2 2 2 2 1 1 1 1 0 0 0 0 0 0 -0 -0 -0 -0 -1 -1 -1 -1 -1 -1 -0 -0 -0 0
-0 -0 1 2 2 2 1 2 2 2 2 2 1 1 1 1 1 1 1 1 1 0 0 -0 -0 -1 -0 -0 -1 -1 -1 -1 -1 -1 -1 -1 -1 -1 -1 -1 -1 -1 -0 -0
-0 1 1 1 2 2 2 2 1 1 1 1 1 0 0 0 0 0 0 -0 -0 -0 -1 -0 -1 -1 -1 -1 -1 -1 -1 -1 -1 -1 -2 -2 -2 -2 -1 -1 -1 -1 -1 -1
-1 -1 0 1 1 1 1 1 1 1 1 0 -0 -0 -0 -0 -1 -1 -1 -1 -1 -1 -1 -1 -1 -2 -2 -2 -2 -2 -2 -2 -2 -2 -2 -2 -2 -2 -2 -2 -2 -2 -2 -1
-1 -1 -1 0 0 1 0 0 0 0 -0 -0 -1 -1 -1 -1 -1 -1 -2 -2 -2 -2 -2 -2 -2 -2 -2 -2 -3 -3 -3 -3 -2 -2 -2 -2 -2 -2 -2 -2 -2 -2 -2 -2
-2 -1 -1 -1 0 0 -0 -0 -1 -1 -1 -1 -2 -2 -2 -2 -2 -2 -2 -2 -2 -2 -3 -3 -3 -3 -3 -3 -3 -3 -3 -3 -3 -3 -3 -3 -3 -3 -2 -2 -2 -2 -2 -2
-1 -1 -1 -1 -1 -1 -1 -1 -2 -2 -2 -2 -2 -2 -3 -3 -3 -3 -3 -3 -3 -3 -3 -3 -4 -3 -3 -4 -4 -4 -4 -4 -4 -4 -4 -3 -3 -3 -3 -3 -2 -2 -2 -2
-1 -1 -2 -2 -2 -2 -2 -2 -3 -3 -3 -3 -3 -3 -3 -3 -3 -3 -3 -3 -4 -4 -4 -4 -4 -4 -4 -4 -4 -4 -4 -4 -4 -4 -4 -4 -4 -4 -4 -4 -3 -3 -2 -2
-3 -3 -3 -3 -3 -3 -3 -3 -3 -3 -4 -4 -4 -4 -4 -4 -4 -4 -4 -4 -4 -5 -5 -5 -5 -4 -4 -5 -5 -4 -4 -4 -4 -4 -4 -4 -4 -4 -4 -4 -4 -4 -3 -2
-4 -4 -4 -4 -4 -4 -4 -4 -4 -5 -5 -5 -5 -5 -5 -5 -5 -4 -5 -5 -5 -5 -5 -5 -5 -5 -5 -5 -5 -5 -5 -5 -5 -5 -4 -4 -4 -5 -5 -4 -4 -4 -4 -3
-5 -5 -5 -5 -5 -5 -5 -5 -5 -5 -5 -5 -5 -5 -5 -5 -5 -5 -5 -6 -6 -6 -6 -6 -6 -6 -6 -6 -5 -5 -5 -5 -5 -5 -5 -5 -5 -5 -5 -5 -5 -5 -4 -4
-5 -6 -6 -6 -6 -6 -6 -6 -6 -6 -6 -6 -6 -6 -6 -6 -6 -6 -6 -6 -6 -6 -6 -6 -6 -6 -6 -6 -6 -6 -6 -6 -6 -6 -5 -6 -6 -5 -5 -5 -5 -5 -4 -4
-6 -6 -6 -6 -6 -7 -7 -7 -7 -7 -7 -7 -7 -7 -7 -7 -7 -7 -7 -7 -7 -7 -6 -6 -7 -7 -7 -6 -6 -6 -6 -6 -6 -6 -6 -6 -6 -6 -6 -5 -5 -5 -5 -4
-7 -7 -7 -7 -7 -7 -7 -7 -7 -7 -7 -7 -7 -7 -7 -7 -7 -7 -7 -8 -8 -8 -7 -7 -7 -7 -7 -7 -7 -7 -7 -6 -6 -6 -6 -6 -6 -6 -6 -6 -5 -5 -5 -5
-7 -7 -7 -7 -7 -7 -7 -7 -8 -8 -7 -8 -8 -8 -8 -8 -8 -8 -8 -8 -8 -8 -8 -8 -8 -8 -7 -7 -7 -7 -7 -7 -7 -7 -7 -6 -6 -6 -6 -6 -6 -5 -5 -5
-8 -8 -8 -8 -8 -8 -8 -8 -8 -8 -8 -8 -8 -8 -8 -8 -8 -8 -8 -8 -8 -8 -8 -8 -8 -8 -8 -7 -7 -7 -7 -7 -7 -7 -7 -7 -6 -6 -6 -6 -6 -6 -5 -5
-8 -8 -8 -8 -9 -8 -8 -8 -8 -8 -8 -8 -9 -9 -9 -9 -9 -9 -9 -9 -9 -9 -9 -8 -8 -8 -8 -8 -7 -7 -7 -7 -7 -7 -7 -7 -7 -7 -6 -6 -6 -6 -6 -5
-9 -9 -9 -9 -9 -9 -9 -9 -9 -9 -9 -9 -9 -9 -9 -9 -9 -9 -9 -9 -9 -9 -9 -9 -8 -8 -8 -8 -8 -8 -7 -7 -7 -7 -7 -7 -7 -7 -7 -6 -6 -6 -6 -5
-9 -9 -9 -9 -9 -9 -10 -10 -9 -9 -9 -9 -9 -9 -9 -10 -10 -9 -9 -9 -9 -9 -9 -9 -8 -8 -8 -8 -8 -8 -8 -8 -8 -8 -8 -7 -7 -7 -7 -6 -6 -6 -6 -5
-10 -10 -10 -10 -10 -10 -10 -10 -10 -10 -10 -10 -10 -10 -10 -10 -10 -10 -9 -9 -9 -9 -9 -9 -8 -8 -8 -8 -8 -8 -8 -8 -8 -8 -8 -7 -7 -7 -7 -6 -6 -6 -6 -5
-10 -10 -10 -10 -10 -11 -11 -11 -11 -11 -11 -11 -10 -10 -10 -10 -10 -10 -10 -10 -9 -9 -9 -9 -9 -9 -8 -8 -8 -8 -8 -8 -8 -8 -8 -7 -7 -7 -7 -6 -6 -6 -6 -5
Wind_Speed
6 4 4 6 8 10 12 11 10 10 11 12 9 7 6 5 5 4 4 4 3 3 4 4 4 4 4 5 5 5 5 6 7 7 7 7 8 8 8 8 9 9 10 10
4 5 6 7 9 12 13 12 12 12 13 10 7 4 5 6 5 5 5 5 4 4 4 4 4 4 5 5 6 5 6 7 7 7 7 7 8 8 8 8 9 9 9 10
3 3 2 9 11 13 8 8 9 14 13 6 6 7 8 8 6 6 5 4 4 4 4 4 5 5 5 5 5 5 6 7 7 7 7 8 9 9 9 8 8 9 9 9
2 1 8 8 5 8 11 10 10 8 7 7 8 8 6 5 5 4 4 3 4 4 4 5 5 5 5 5 5 6 6 7 7 7 8 8 8 9 9 8 9 9 10 10
3 5 8 8 4 5 7 8 7 9 8 7 5 3 5 3 3 4 4 4 4 4 4 4 4 5 5 5 6 6 7 7 7 7 8 8 9 9 9 9 9 9 9 10
4 4 7 6 3 2 3 5 3 4 6 4 1 3 6 4 3 3 3 3 3 3 3 4 5 4 5 6 6 7 8 8 7 7 7 9 9 9 8 8 9 9 10 9
7 6 8 6 3 2 3 5 3 2 2 2 3 6 5 4 4 3 3 3 3 3 3 4 5 5 6 7 7 8 8 8 8 7 8 9 8 8 8 8 8 8 10 9
5 6 8 2 2 4 4 1 1 2 2 3 3 4 4 4 4 3 3 3 3 3 4 4 4 5 6 7 8 8 7 7 8 8 8 8 8 8 8 8 8 8 9 9
7 7 3 1 2 2 2 1 2 2 3 3 3 4 4 5 5 4 4 4 4 4 5 5 5 4 7 8 8 8 8 8 8 8 7 7 7 8 7 6 6 7 7 8
4 5 4 3 2 2 1 2 2 2 3 3 4 5 5 5 5 5 5 5 4 5 6 7 6 6 7 8 7 7 8 8 8 8 8 7 6 6 6 6 7 7 7 7
5 5 4 3 2 2 2 2 2 3 3 3 4 5 5 5 5 5 6 5 5 5 6 7 7 7 7 7 7 7 8 8 8 7 7 7 7 6 7 6 7 9 7 6
6 5 4 5 4 2 2 3 3 2 3 3 3 5 5 5 5 5 6 6 5 6 6 7 7 8 8 7 6 7 7 7 6 6 6 6 7 8 10 10 14 14 11 9
5 5 5 5 3 2 1 2 3 3 4 4 4 4 5 5 5 5 6 6 6 7 7 7 7 8 7 7 7 6 7 7 6 6 6 6 6 7 8 10 12 11 10 9
3 2 3 3 3 3 3 3 3 3 4 4 4 5 5 5 6 6 7 7 7 6 6 7 7 8 7 7 7 7 7 8 8 6 6 6 6 6 6 7 8 7 8 9
3 2 3 3 3 3 3 3 3 4 4 5 4 5 5 6 7 7 7 7 7 6 7 7 7 8 7 6 7 7 6 6 6 5 5 5 5 5 5 6 6 6 6 7
4 2 1 1 2 3 3 3 4 5 5 6 6 6 7 7 7 7 7 6 6 7 7 7 8 8 7 6 7 6 6 9 8 6 5 4 4 5 5 5 5 5 5 5
1 2 2 3 4 4 4 4 4 5 5 6 7 7 7 7 7 7 7 6 6 7 7 7 8 8 7 6 6 5 5 6 9 6 5 4 4 4 5 5 5 5 5 5
2 3 3 3 3 4 5 5 5 5 6 7 7 6 6 6 7 8 7 7 7 7 7 6 7 7 7 6 5 4 4 4 4 4 4 4 4 4 4 4 5 5 5 5
2 2 2 2 2 3 4 5 5 6 6 6 6 6 6 6 6 7 7 7 7 8 8 6 10 8 7 7 7 4 4 5 4 4 4 5 5 4 4 4 4 4 4 4
3 3 2 3 3 3 4 5 5 6 6 5 5 6 6 6 6 6 6 6 6 6 7 8 8 6 6 6 8 4 4 4 4 4 4 3 4 4 4 4 4 4 3 3
4 4 4 4 5 5 4 5 5 6 7 6 5 6 7 7 7 6 6 7 7 7 7 10 7 6 5 6 6 4 3 3 3 3 4 4 4 4 4 4 4 3 3 3
4 4 4 4 5 6 6 5 5 6 7 6 6 6 6 7 7 6 6 6 7 10 8 6 5 7 8 7 4 3 3 3 3 3 3 3 4 4 4 4 3 3 3 2
4 4 4 5 5 6 7 6 6 6 6 7 7 7 7 7 6 6 7 6 6 10 8 5 8 10 10 5 3 3 3 3 3 3 3 3 4 4 3 3 2 2 2 2
4 5 5 5 5 5 6 7 7 6 6 7 6 6 6 6 6 5 5 9 12 12 7 8 11 11 9 4 3 3 3 3 3 3 3 3 3 3 3 2 2 2 2 3
5 5 5 5 5 5 6 7 6 6 6 5 6 6 5 5 5 6 6 7 10 10 6 8 10 10 6 3 3 3 2 2 3 3 3 3 3 3 2 2 2 2 2 2
4 4 4 4 4 5 5 5 5 5 6 6 6 5 5 5 6 6 5 6 7 8 6 5 5 6 4 3 3 3 3 3 4 3 3 3 3 3 2 2 2 2 2 2
4 4 4 4 4 4 4 5 5 6 6 6 7 6 6 6 6 6 6 5 5 5 5 4 4 3 3 3 3 3 3 3 3 2 2 2 2 2 2 2 2 2 2 1
Wind_Direction
235 228 193 213 218 209 212 213 217 234 238 254 256 253 254 257 261 262 267 267 257 259 266 274 282 285 287 290 293 295 296 292 285 283 283 284 286 283 280 275 277 275 273 274
246 231 223 244 236 222 226 227 235 252 260 261 262 268 274 271 266 256 262 263 259 264 269 276 279 286 292 290 291 295 295 291 289 289 289 289 289 289 286 283 280 280 277 276
248 271 274 250 226 216 216 214 211 237 248 257 270 266 262 258 250 245 259 265 269 272 267 268 274 276 280 282 291 297 294 295 296 296 296 295 297 298 290 285 282 281 280 277
202 139 235 246 219 210 223 233 221 233 246 243 246 256 264 248 229 246 256 265 269 267 274 279 280 285 287 292 297 297 297 297 297 297 298 300 300 297 294 290 286 283 281 282
186 231 268 283 247 191 207 243 227 235 254 263 259 288 287 264 222 239 253 259 257 262 273 285 294 301 306 303 299 296 295 296 295 294 295 297 297 296 296 295 290 285 285 282
192 216 239 252 257 212 143 257 275 241 255 264 268 272 270 276 282 272 267 267 281 297 307 309 306 312 310 301 298 293 292 292 290 289 289 290 289 291 294 293 291 293 289 283
213 231 257 261 267 112 180 243 290 279 267 253 228 238 261 290 293 276 279 287 299 312 308 298 302 310 303 299 292 291 294 295 294 293 290 288 289 292 295 296 297 295 292 290
193 217 249 264 126 173 222 250 289 293 276 268 264 267 275 283 283 289 300 300 304 304 297 296 299 302 297 294 293 298 300 300 298 296 296 300 297 296 297 296 298 297 296 297
199 220 249 221 206 239 200 225 251 259 275 269 279 279 280 282 284 281 281 287 293 293 297 300 297 292 291 293 298 303 305 303 302 302 298 297 296 298 302 299 295 296 296 295
239 261 273 275 277 283 241 237 250 257 275 275 273 276 281 286 289 290 287 289 294 298 298 301 302 296 288 294 300 303 305 306 308 309 306 304 300 298 299 300 298 295 296 296
247 269 288 282 261 259 282 282 282 290 284 273 271 277 278 284 289 290 295 293 290 289 290 294 300 300 300 300 304 306 306 307 310 308 306 306 303 296 293 286 288 292 289 283
244 249 238 262 264 256 268 278 278 296 309 304 285 280 286 286 285 286 290 293 294 293 291 294 298 299 303 302 303 305 308 309 309 308 308 308 308 310 301 296 301 297 294 291
240 261 253 263 271 283 271 284 288 286 285 294 297 292 291 291 294 294 294 294 293 292 291 293 296 298 301 303 304 302 300 303 305 307 308 309 311 314 318 321 320 319 321 323
250 269 273 277 286 301 298 303 312 312 305 300 300 302 299 298 300 300 296 294 293 293 293 294 296 297 300 303 303 302 300 301 304 302 302 303 307 309 311 315 323 328 332 334
323 296 259 278 296 312 319 327 331 323 320 318 314 308 305 302 299 298 298 299 301 299 296 297 298 300 305 306 306 303 302 301 301 299 300 303 307 310 312 313 314 318 326 336
312 323 336 320 314 322 328 325 314 307 310 312 313 309 303 297 295 296 299 300 299 299 300 299 298 301 306 307 306 305 302 305 310 307 310 313 314 316 317 317 316 319 325 331
341 326 324 315 314 317 317 310 297 296 301 302 304 307 309 307 305 304 306 306 298 294 295 294 296 302 304 304 303 302 305 311 316 314 315 316 317 318 316 316 319 322 325 330
255 257 264 267 285 306 316 318 313 307 302 300 304 308 307 303 299 301 306 312 312 308 304 299 300 305 306 307 307 303 305 306 310 310 312 316 316 314 315 315 318 320 327 336
345 338 330 317 306 302 305 309 310 310 310 309 307 303 297 294 295 299 305 310 311 310 311 311 312 315 312 310 314 302 303 306 310 310 308 312 316 321 321 320 321 325 329 336
350 345 336 326 323 312 306 308 311 313 311 309 307 307 306 304 303 305 307 303 295 292 300 306 310 309 308 308 312 303 300 302 305 307 310 310 313 316 316 315 318 322 330 336
339 334 330 325 319 316 309 307 310 311 312 313 307 303 301 303 305 304 305 304 305 306 308 309 312 309 309 310 312 307 302 302 305 306 310 312 310 310 311 312 315 320 327 333
323 321 319 318 319 319 319 317 310 308 311 312 310 306 306 308 308 305 292 285 298 310 314 305 304 309 315 314 309 306 303 302 303 304 305 305 303 303 306 309 311 317 324 329
314 314 315 314 311 309 313 315 312 311 310 309 307 306 303 299 300 300 303 304 307 311 314 303 307 313 315 318 314 307 304 303 304 303 301 300 302 303 306 308 313 318 323 327
317 319 316 314 315 317 319 318 317 314 307 303 302 299 298 301 301 292 289 303 313 312 309 310 316 317 318 317 310 305 303 303 301 300 303 306 309 311 311 314 320 326 330 330
319 318 322 327 326 317 311 314 318 318 316 313 311 309 305 296 294 300 301 302 310 315 315 316 320 321 325 321 314 305 301 294 293 296 297 300 305 309 313 318 319 320 325 326
319 317 311 306 302 303 309 314 315 315 318 319 319 320 317 311 305 304 306 308 312 317 318 314 315 319 322 317 312 307 301 300 301 300 297 296 299 299 304 311 312 311 313 318
322 320 321 323 322 319 316 315 313 314 315 314 313 315 316 316 314 314 312 314 316 318 316 314 314 315 314 310 307 302 297 295 293 292 293 294 296 290 292 293 298 302 307 314
Height
1444 1443 1446 1446 1446 1449 1450 1449 1451 1444 1442 1434 1433 1432 1431 1431 1430 1430 1430 1430 1429 1428 1428 1427 1425 1424 1422 1420 1418 1416 1413 1410 1407 1404 1401 1399 1396 1393 1391 1388 1385 1383 1380 1378
1443 1441 1443 1443 1441 1441 1441 1441 1441 1439 1436 1430 1429 1429 1429 1428 1427 1427 1426 1426 1425 1425 1424 1423 1421 1419 1417 1415 1413 1411 1408 1405 1402 1399 1396 1393 1390 1387 1384 1381 1379 1376 1373 1370
1445 1443 1442 1441 1433 1433 1435 1433 1434 1433 1429 1428 1427 1426 1425 1424 1423 1423 1423 1422 1422 1421 1420 1419 1417 1415 1413 1411 1409 1406 1403 1400 1397 1394 1390 1387 1384 1381 1378 1375 1372 1368 1365 1363
1448 1448 1445 1428 1422 1423 1425 1424 1426 1425 1424 1423 1423 1422 1421 1420 1420 1420 1419 1419 1418 1417 1416 1414 1413 1411 1408 1406 1404 1401 1398 1395 1392 1389 1385 1382 1379 1375 1372 1369 1365 1362 1359 1356
1447 1446 1438 1426 1421 1421 1423 1422 1421 1421 1420 1420 1419 1419 1418 1418 1418 1417 1417 1416 1415 1414 1412 1410 1408 1406 1404 1401 1399 1396 1393 1390 1387 1384 1381 1377 1373 1370 1366 1363 1359 1356 1353 1350
1443 1442 1436 1422 1417 1416 1420 1423 1419 1417 1417 1418 1418 1421 1417 1415 1414 1414 1413 1412 1411 1409 1408 1406 1404 1402 1399 1396 1394 1391 1388 1385 1383 1380 1376 1372 1368 1365 1361 1357 1353 1350 1347 1344
1438 1438 1430 1419 1416 1416 1425 1422 1417 1416 1415 1416 1416 1416 1414 1412 1411 1410 1409 1408 1407 1405 1403 1401 1400 1397 1394 1392 1389 1387 1384 1380 1377 1374 1371 1367 1363 1359 1355 1352 1348 1345 1342 1339
1435 1436 1428 1416 1416 1419 1418 1415 1415 1414 1414 1413 1413 1411 1410 1409 1408 1406 1405 1404 1402 1400 1399 1397 1395 1393 1390 1387 1385 1382 1379 1375 1372 1369 1365 1361 1357 1353 1350 1347 1343 1340 1337 1334
1425 1422 1416 1414 1414 1414 1414 1414 1413 1413 1412 1411 1410 1409 1407 1406 1404 1403 1402 1400 1398 1396 1394 1392 1390 1388 1385 1383 1380 1377 1373 1370 1366 1363 1359 1356 1352 1348 1345 1342 1339 1336 1333 1330
1420 1416 1413 1412 1412 1412 1412 1412 1411 1411 1410 1409 1407 1406 1404 1402 1401 1399 1397 1396 1394 1392 1389 1387 1385 1383 1381 1378 1375 1372 1368 1365 1362 1358 1354 1351 1348 1344 1341 1338 1335 1333 1330 1327
1416 1413 1411 1410 1410 1410 1410 1409 1408 1407 1406 1405 1404 1402 1401 1398 1397 1395 1393 1392 1390 1387 1385 1383 1381 1378 1376 1374 1371 1367 1364 1360 1357 1353 1350 1346 1343 1340 1337 1334 1332 1330 1327 1325
1412 1410 1410 1408 1407 1407 1407 1406 1405 1404 1402 1401 1400 1398 1397 1394 1392 1391 1389 1387 1385 1382 1380 1378 1376 1373 1371 1369 1366 1362 1359 1355 1352 1349 1346 1343 1339 1336 1333 1331 1328 1326 1324 1322
1406 1406 1406 1405 1404 1404 1404 1403 1401 1400 1399 1397 1396 1395 1393 1390 1388 1386 1384 1382 1380 1377 1375 1373 1370 1368 1365 1363 1361 1357 1354 1351 1348 1345 1342 1339 1336 1333 1329 1326 1324 1322 1320 1318
1403 1403 1402 1402 1401 1401 1400 1399 1398 1396 1395 1394 1392 1390 1388 1386 1384 1382 1380 1377 1375 1373 1370 1368 1365 1362 1360 1358 1355 1353 1350 1347 1344 1341 1339 1336 1333 1330 1327 1324 1320 1317 1317 1315
1400 1400 1400 1399 1398 1398 1397 1395 1394 1392 1391 1389 1388 1386 1384 1381 1379 1377 1375 1373 1370 1368 1365 1363 1360 1357 1356 1353 1351 1348 1345 1342 1340 1338 1335 1333 1330 1328 1325 1322 1320 1317 1314 1313
1398 1397 1397 1396 1395 1394 1393 1392 1390 1388 1387 1385 1383 1381 1379 1377 1375 1372 1371 1368 1366 1363 1360 1358 1355 1353 1351 1349 1346 1343 1341 1339 1337 1334 1332 1330 1327 1325 1323 1321 1318 1316 1314 1312
1396 1394 1394 1393 1392 1391 1390 1389 1387 1385 1383 1381 1379 1377 1375 1373 1370 1368 1366 1364 1361 1359 1356 1354 1351 1349 1347 1344 1342 1340 1337 1335 1333 1331 1329 1327 1325 1323 1321 1319 1317 1315 1313 1313
1394 1393 1392 1391 1390 1388 1387 1386 1384 1382 1380 1377 1375 1373 1371 1369 1366 1364 1361 1359 1356 1354 1352 1350 1347 1345 1343 1341 1339 1337 1334 1332 1330 1328 1326 1325 1323 1322 1320 1318 1316 1314 1313 1312
1392 1391 1390 1389 1388 1386 1384 1383 1381 1378 1376 1374 1372 1369 1367 1365 1362 1360 1358 1355 1352 1349 1347 1346 1343 1341 1339 1337 1336 1334 1332 1330 1328 1326 1325 1323 1322 1320 1319 1317 1315 1314 1313 1312
1390 1389 1387 1386 1385 1384 1382 1380 1378 1375 1373 1371 1368 1366 1363 1361 1359 1356 1354 1351 1349 1346 1344 1342 1340 1338 1336 1334 1333 1331 1329 1328 1326 1324 1323 1321 1320 1319 1317 1316 1315 1313 1313 1312
1388 1386 1385 1383 1382 1380 1379 1377 1375 1372 1370 1368 1365 1363 1360 1358 1356 1353 1350 1347 1345 1343 1341 1339 1337 1335 1333 1331 1330 1328 1327 1325 1324 1322 1321 1320 1318 1317 1316 1315 1314 1313 1312 1311
1386 1384 1382 1381 1379 1377 1376 1374 1372 1369 1367 1365 1362 1360 1357 1354 1352 1349 1347 1345 1342 1340 1338 1336 1334 1332 1330 1329 1327 1326 1324 1323 1322 1321 1319 1318 1317 1316 1315 1314 1313 1313 1312 1312
1384 1382 1380 1379 1377 1374 1372 1371 1369 1366 1364 1361 1359 1356 1354 1351 1349 1346 1343 1341 1339 1337 1335 1332 1331 1329 1328 1326 1325 1323 1322 1321 1320 1319 1318 1317 1316 1315 1314 1313 1313 1313 1312 1312
1382 1380 1378 1376 1374 1372 1369 1367 1365 1363 1360 1358 1355 1353 1350 1347 1345 1343 1340 1338 1335 1333 1331 1329 1327 1326 1324 1323 1322 1321 1320 1319 1318 1317 1317 1316 1315 1314 1314 1313 1313 1312 1312 1312
1380 1378 1376 1373 1371 1369 1366 1364 1362 1359 1357 1354 1352 1350 1347 1345 1342 1339 1337 1334 1332 1330 1328 1326 1324 1323 1321 1320 1319 1318 1317 1317 1316 1316 1315 1314 1314 1313 1313 1313 1312 1312 1312 1312
1378 1376 1373 1371 1369 1367 1364 1362 1359 1357 1354 1351 1348 1346 1344 1341 1339 1336 1334 1331 1329 1327 1325 1323 1321 1320 1319 1318 1317 1316 1315 1315 1314 1314 1313 1313 1312 1312 1312 1312 1312 1312 1312 1312
1376 1373 1371 1369 1367 1364 1362 1359 1357 1354 1352 1349 1346 1343 1341 1338 1336 1334 1331 1329 1327 1325 1323 1321 1319 1318 1317 1316 1315 1314 1314 1313 1312 1312 1312 1311 1311 1311 1311 1311 1311 1312 1312 1312